Weather History for Chadron, NE

Change the Weather History Date:

Tuesday, November 29, 2011

  Actual Average Record
Temperature  
Mean Temperature 34 °F 28 °F  
Max Temperature 53 °F 42 °F 71 °F (1945)
Min Temperature 15 °F 14 °F -1 °F (1985)
Degree Days  
Heating Degree Days 31 37  
Month to date heating degree days 847 891  
Since 1 July heating degree days 1445 1644  
Moisture  
Dew Point 22 °F    
Average Humidity 67    
Maximum Humidity 92    
Minimum Humidity 41    
Precipitation  
Precipitation 0.00 in 0.01 in 0.26 in (1929)
Month to date precipitation 0.52 0.60  
Year to date precipitation 17.55 17.51  
Sea Level Pressure  
Sea Level Pressure 30.30 in    
Wind  
Wind Speed 4 mph (SW)    
Max Wind Speed 14 mph    
Max Gust Speed 16 mph    
Visibility 10 miles    
Events      
T = Trace of Precipitation, MM = Missing Value Source: NWS Daily Summary

Daily Weather History Graph

Daily Weather History Graph

Search for Another Location

Airport:

Trip Planner

Search our weather history database for the weather conditions in past years. The results will help you decide how hot, cold, wet, or windy it might be!

Date:

Astronomy

Nov. 29, 2011 Rise Set
Actual Time 7:00 AM MST 4:20 PM MST
Civil Twilight 6:29 AM MST 4:51 PM MST
Nautical Twilight 5:54 AM MST 5:26 PM MST
Astronomical Twilight 5:20 AM MST 6:00 PM MST
Moon 10:46 AM MST (11/29) 9:18 PM MST (11/29)
Length of Visible Light 10h 22m
Length of Day
9h 19m
Waxing Crescent, 25% of the Moon is Illuminated
Nov 29
Waxing Crescent
Dec 2
First Quarter
Dec 10
Full
Dec 17
Last Quarter
Dec 24
New

Hourly Weather History & Observations

Time (MST) Temp. Windchill Dew Point Humidity Pressure Visibility Wind Dir Wind Speed Gust Speed Precip Events Conditions
12:53 AM 19.0 °F - 16.0 °F 88% 30.43 in 10.0 mi Calm Calm - N/A   Clear
1:53 AM 18.0 °F 11.1 °F 14.0 °F 84% 30.43 in 10.0 mi SW 4.6 mph - N/A   Clear
2:53 AM 18.0 °F - 15.1 °F 88% 30.41 in 10.0 mi Calm Calm - N/A   Clear
3:53 AM 18.0 °F 12.7 °F 15.1 °F 88% 30.41 in 10.0 mi South 3.5 mph - N/A   Clear
4:53 AM 18.0 °F - 15.1 °F 88% 30.43 in 10.0 mi Calm Calm - N/A   Clear
5:53 AM 17.1 °F - 14.0 °F 88% 30.41 in 9.0 mi Calm Calm - N/A   Clear
6:53 AM 16.0 °F 8.8 °F 12.9 °F 88% 30.43 in 10.0 mi West 4.6 mph - N/A   Clear
7:53 AM 19.0 °F - 16.0 °F 88% 30.43 in 10.0 mi Calm Calm - N/A   Clear
8:53 AM 28.0 °F - 24.1 °F 85% 30.40 in 10.0 mi Calm Calm - N/A   Clear
9:53 AM 42.1 °F 37.1 °F 30.0 °F 62% 30.37 in 10.0 mi SSW 8.1 mph - N/A   Clear
10:53 AM 45.0 °F 40.1 °F 28.9 °F 53% 30.35 in 10.0 mi WSW 9.2 mph - N/A   Clear
11:53 AM 48.0 °F - 28.0 °F 46% 30.31 in 10.0 mi West 6.9 mph - N/A   Clear
12:53 PM 50.0 °F - 28.0 °F 43% 30.28 in 10.0 mi West 6.9 mph - N/A   Clear
1:53 PM 51.1 °F - 28.0 °F 41% 30.24 in 10.0 mi SW 6.9 mph - N/A   Clear
2:53 PM 51.1 °F - 28.0 °F 41% 30.23 in 10.0 mi West 5.8 mph - N/A   Clear
3:53 PM 46.0 °F 44.8 °F 28.0 °F 50% 30.23 in 10.0 mi SSW 3.5 mph - N/A   Clear
4:53 PM 41.0 °F 38.0 °F 28.0 °F 60% 30.22 in 10.0 mi SSW 4.6 mph - N/A   Clear
5:53 PM 34.0 °F 28.8 °F 26.1 °F 73% 30.24 in 10.0 mi West 5.8 mph - N/A   Clear
6:53 PM 30.9 °F 24.3 °F 26.1 °F 82% 30.24 in 10.0 mi SW 6.9 mph - N/A   Clear
7:53 PM 30.9 °F - 26.1 °F 82% 30.21 in 10.0 mi Calm Calm - N/A   Clear
8:53 PM 28.9 °F 25.2 °F 25.0 °F 85% 30.17 in 10.0 mi SW 3.5 mph - N/A   Clear
9:53 PM 28.0 °F 21.7 °F 24.1 °F 85% 30.12 in 10.0 mi SW 5.8 mph - N/A   Clear
10:53 PM 26.1 °F - 21.9 °F 84% 30.08 in 10.0 mi Calm Calm - N/A   Clear
11:53 PM 24.1 °F - 21.0 °F 88% 30.03 in 10.0 mi Calm Calm - N/A   Clear